Content
SEND FEEDBACK

Daily
Averages
Monthly
Summary
United States of America

PETERSBURG, ILLINOIS


Home > North America > United States > Illinois
Elevation: 520 feet     Latitude: 40 01N     Longitude: 089 51W

WEATHER
 
SELECT A DAY
Number of Records: 208,195;   Date Range: 1/1/95 - 12/16/14
 
SHARE

PRINT THIS DATA

[ ← Previous Day ]
WEATHER ALMANAC - FEBRUARY 1, 2013
[ Next Day → ]
[ °C ]   °F
Weather ElementAverageHighLow
Temperature14.3 °F23 °F (8:52 pm)3.9 °F (5:52 am)
Dewpoint4.8 °F19.4 °F (11:04 pm)-4 °F (3:02 am)
Humidity67 %93 % (11:04 pm)52 % (12:52 pm)
Barometer30.36 in30.50 in (9:52 am)30.18 in (11:29 pm)
Wind Speed11.4 mph18.4 mph (3:02 am)
Wind Gust26.5 mph (3:02 am)
Weather ElementAverage
Visibility8.4 mi
Wind DirectionWSW (245 °)

Weather ElementTotal
Precipitation0.04 in
Heating Degree Days51.6 (Base 65)
Averaged from 30 records on February 1, 2013
WEATHER CONDITIONS BREAKOUT
WIND DIRECTION BREAKOUT
WEATHER BY HOUR - FEBRUARY 1, 2013
[ °C ]   °F
Local TimeTemperatureDewpointHumidityBarometerVisibilityWind DirectionWind SpeedGust SpeedPrecipitationEventsConditions
1:52 AM6.1 °F-2.0 °F69 %30.40 in10.0 miWest (280°)13.8 mph24.2 mphMostly Cloudy
2:00 AM6.8 °F-2.2 °F67 %30.37 in10.0 miWNW (290°)17.3 mph24.2 mphScattered Clouds
2:31 AM6.8 °F-2.2 °F67 %30.39 in10.0 miWNW (290°)16.1 mph24.2 mphMostly Cloudy
2:52 AM6.8 °F-2.2 °F67 %30.37 in10.0 miWNW (300°)13.8 mph23.0 mphMostly Cloudy
3:02 AM6.8 °F-4.0 °F61 %30.37 in10.0 miWNW (290°)18.4 mph26.5 mphScattered Clouds
3:52 AM5.0 °F-2.9 °F70 %30.42 in10.0 miWNW (290°)11.5 mphClear
4:52 AM5.0 °F-4.0 °F66 %30.42 in10.0 miWNW (300°)6.9 mph16.1 mphClear
5:52 AM3.9 °F-2.9 °F73 %30.44 in10.0 miWNW (300°)9.2 mphClear
6:52 AM3.9 °F-4.0 °F70 %30.47 in10.0 miWest (280°)9.2 mphClear
7:52 AM5.0 °F-2.9 °F70 %30.47 in10.0 miWNW (290°)8.1 mphClear
8:52 AM7.0 °F-2.0 °F67 %30.49 in10.0 miWest (270°)8.1 mphClear
9:52 AM9.0 °F-2.0 °F61 %30.50 in10.0 miWNW (290°)9.2 mphClear
10:52 AM10.9 °F-0.9 °F59 %30.50 in10.0 miWSW (240°)10.4 mphClear
11:52 AM14.0 °F0.0 °F54 %30.47 in10.0 miWest (260°)11.5 mphClear
12:52 PM16.0 °F1.0 °F52 %30.43 in10.0 miWSW (240°)10.4 mphClear
1:52 PM19.0 °F3.9 °F52 %30.41 in10.0 miWSW (240°)10.4 mph20.7 mphClear
2:52 PM19.9 °F5.0 °F52 %30.39 in10.0 miWSW (250°)11.5 mphScattered Clouds
3:52 PM19.9 °F5.0 °F52 %30.37 in10.0 miWSW (250°)10.4 mphOvercast
4:52 PM21.0 °F6.1 °F53 %30.36 in10.0 miWSW (240°)10.4 mphOvercast
5:52 PM21.0 °F6.1 °F53 %30.35 in10.0 miSW (230°)9.2 mphOvercast
6:52 PM21.0 °F7.0 °F55 %30.34 in10.0 miSSW (210°)8.1 mphMostly Cloudy
7:52 PM21.9 °F8.1 °F55 %30.31 in10.0 miSouth (190°)9.2 mphScattered Clouds
8:52 PM23.0 °F9.0 °F55 %30.28 in10.0 miSouth (190°)10.4 mphOvercast
9:52 PM21.9 °F14.0 °F72 %30.26 in4.0 miSSW (200°)16.1 mph26.5 mph0.00 inSnowLight Snow
10:45 PM21.2 °F17.6 °F86 %30.21 in4.0 miSSW (200°)12.7 mph21.9 mph0.00 inSnowLight Snow
10:52 PM21.9 °F18.0 °F85 %30.24 in1.8 miSouth (190°)12.7 mph0.00 inSnowLight Snow
11:04 PM21.2 °F19.4 °F93 %30.20 in2.5 miSouth (190°)12.7 mph0.01 inSnowLight Snow
11:22 PM21.2 °F19.4 °F93 %30.19 in1.8 miSouth (180°)11.5 mph0.01 inSnowLight Snow
11:29 PM21.2 °F19.4 °F93 %30.18 in3.0 miSouth (180°)11.5 mph19.6 mph0.01 inSnowLight Snow
11:52 PM21.9 °F19.0 °F89 %30.22 in4.0 miSSW (200°)11.5 mph0.01 inSnowLight Snow
Hourly data recorded from KSPI, located miles away from Petersburg, Illinois







STORIES FROM OUR PARTNERS